Change the Weather History Date:

Monday, November 19, 2012

  Actual Average Record
Temperature  
Mean Temperature 53 °F 51 °F  
Max Temperature 59 °F 63 °F 79 °F (1931)
Min Temperature 47 °F 40 °F 19 °F (2014)
Degree Days  
Heating Degree Days 12 14  
Month to date heating degree days 305 218  
Since 1 July heating degree days 482 407  
Cooling Degree Days 0 0  
Month to date cooling degree days 0 1  
Year to date cooling degree days 1871 1721  
Growing Degree Days 4 (Base 50)    
Moisture  
Dew Point 43 °F    
Average Humidity 69    
Maximum Humidity 80    
Minimum Humidity 57    
Precipitation  
Precipitation T in 0.10 in 1.53 in (1938)
Month to date precipitation 0.47 1.98  
Year to date precipitation 37.76 39.13  
Snow  
Snow 0.00 in 0.00 in 2.20 in (2000)
Month to date snowfall 0.0  
Since 1 July snowfall 0.0  
Since 1 September snowfall 0.0  
Snow Depth -    
Sea Level Pressure  
Sea Level Pressure 30.27 in    
Wind  
Wind Speed 8 mph (NNE)    
Max Wind Speed 16 mph    
Max Gust Speed 24 mph    
Visibility 10 miles    
Events      
T = Trace of Precipitation, MM = Missing Value Source: NWS Daily Summary

Daily Weather History Graph

Daily Weather History Graph

Search for Another Location

Airport or City:

Trip Planner

Search our weather history database for the weather conditions in past years. The results will help you decide how hot, cold, wet, or windy it might be!

Date:

Astronomy

Nov. 19, 2012 Rise Set
Actual Time 6:55 AM EST 5:05 PM EST
Civil Twilight 6:28 AM EST 5:32 PM EST
Nautical Twilight 5:57 AM EST 6:03 PM EST
Astronomical Twilight 5:26 AM EST 6:34 PM EST
Moon 12:01 PM EST (11/19) 11:25 PM EST (11/19)
Length of Visible Light 11h 04m
Length of Day
10h 09m
Waxing Crescent, 40% of the Moon is Illuminated
Nov 19
Waxing Crescent
Nov 20
First Quarter
Nov 28
Full
Dec 6
Last Quarter
Dec 13
New

Hourly Weather History & Observations

Time (EST) Temp. Dew Point Humidity Pressure Visibility Wind Dir Wind Speed Gust Speed Precip Events Conditions
12:51 AM 51.1 °F 42.1 °F 71% 30.34 in 10.0 mi NE 12.7 mph 23.0 mph N/A   Overcast
1:51 AM 51.1 °F 42.1 °F 71% 30.33 in 10.0 mi NNE 9.2 mph - N/A   Overcast
2:51 AM 50.0 °F 42.1 °F 74% 30.32 in 9.0 mi NNE 11.5 mph 23.0 mph 0.00 in   Overcast
3:51 AM 50.0 °F 41.0 °F 71% 30.30 in 10.0 mi NNE 11.5 mph 17.3 mph N/A   Overcast
4:51 AM 50.0 °F 41.0 °F 71% 30.30 in 10.0 mi NNE 10.4 mph - N/A   Overcast
5:51 AM 50.0 °F 41.0 °F 71% 30.31 in 10.0 mi NNE 8.1 mph 16.1 mph N/A   Overcast
6:51 AM 50.0 °F 41.0 °F 71% 30.31 in 10.0 mi Variable 6.9 mph - N/A   Overcast
7:51 AM 48.9 °F 41.0 °F 74% 30.32 in 10.0 mi NNE 8.1 mph 21.9 mph N/A   Overcast
8:51 AM 50.0 °F 41.0 °F 71% 30.32 in 10.0 mi NNE 9.2 mph 18.4 mph N/A   Overcast
9:51 AM 51.1 °F 42.1 °F 71% 30.31 in 10.0 mi NNE 11.5 mph 20.7 mph N/A   Overcast
10:51 AM 54.0 °F 43.0 °F 66% 30.30 in 10.0 mi NNE 8.1 mph 17.3 mph N/A   Mostly Cloudy
11:51 AM 54.0 °F 44.1 °F 69% 30.28 in 10.0 mi NNE 10.4 mph - N/A   Overcast
12:51 PM 55.9 °F 44.1 °F 64% 30.26 in 10.0 mi NNE 8.1 mph 17.3 mph N/A   Overcast
1:51 PM 57.0 °F 45.0 °F 64% 30.24 in 10.0 mi NNE 10.4 mph 18.4 mph N/A   Overcast
2:51 PM 59.0 °F 45.0 °F 60% 30.22 in 10.0 mi NNE 10.4 mph 17.3 mph N/A   Mostly Cloudy
3:51 PM 57.9 °F 45.0 °F 62% 30.22 in 10.0 mi NNE 5.8 mph 18.4 mph N/A   Mostly Cloudy
4:51 PM 55.9 °F 44.1 °F 64% 30.22 in 10.0 mi NNE 6.9 mph - N/A   Mostly Cloudy
5:51 PM 54.0 °F 43.0 °F 66% 30.23 in 10.0 mi North 6.9 mph - N/A   Mostly Cloudy
6:51 PM 52.0 °F 42.1 °F 69% 30.23 in 10.0 mi NNE 5.8 mph - N/A   Mostly Cloudy
7:51 PM 51.1 °F 42.1 °F 71% 30.23 in 10.0 mi NNE 5.8 mph - N/A   Scattered Clouds
8:51 PM 50.0 °F 42.8 °F 76% 30.22 in 10.0 mi North 4.6 mph - N/A   Mostly Cloudy
9:51 PM 50.0 °F 42.1 °F 74% 30.20 in 10.0 mi NNE 6.9 mph - N/A   Mostly Cloudy
10:30 PM 48.2 °F 42.8 °F 82% 30.19 in 10.0 mi NNE 6.9 mph - N/A   Scattered Clouds
10:51 PM 48.9 °F 42.1 °F 77% 30.19 in 10.0 mi NNE 6.9 mph - N/A   Mostly Cloudy
11:51 PM 48.0 °F 42.1 °F 80% 30.18 in 10.0 mi Calm Calm - N/A   Mostly Cloudy